Bismarck, ND

6:28 AM CST on February 26, 2017 (GMT -0600)
Bismarck Municipal

Weather History for KBIS - April, 2014

Change the Weather History Date:

Monday, April 14, 2014

  Actual Average Record
Temperature  
Mean Temperature 25 °F 43 °F  
Max Temperature 34 °F 57 °F 88 °F (1915)
Min Temperature 16 °F 30 °F 6 °F (1893)
Degree Days  
Heating Degree Days 40 22  
Month to date heating degree days 394 346  
Since 1 July heating degree days 8410 7865  
Cooling Degree Days 0 0  
Month to date cooling degree days 0 0  
Year to date cooling degree days 0 0  
Moisture  
Dew Point 17 °F    
Average Humidity 66    
Maximum Humidity 96    
Minimum Humidity 35    
Precipitation  
Precipitation 0.05 in 0.04 in 1.04 in (2013)
Month to date precipitation 0.25 0.52  
Year to date precipitation 1.64 2.33  
Snow  
Snow 2.00 in 0.20 in 17.30 in (2013)
Month to date snowfall 3.9 2.7  
Since 1 July snowfall 40.2 49.3  
Snow Depth 2.00 in    
Sea Level Pressure  
Sea Level Pressure 30.26 in    
Wind  
Wind Speed 9 mph (North)    
Max Wind Speed 20 mph    
Max Gust Speed 27 mph    
Visibility 6 miles    
Events Snow    
T = Trace of Precipitation, MM = Missing Value Source: NWS Daily Summary

Daily Weather History Graph

Daily Weather History Graph

Search for Another Location

Airport or City:

Trip Planner

Search our weather history database for the weather conditions in past years. The results will help you decide how hot, cold, wet, or windy it might be!

Date:

Astronomy

Apr. 14, 2014 Rise Set
Actual Time 6:57 AM CDT 8:30 PM CDT
Civil Twilight 6:25 AM CDT 9:01 PM CDT
Nautical Twilight 5:47 AM CDT 9:40 PM CDT
Astronomical Twilight 5:05 AM CDT 10:22 PM CDT
Moon 8:10 PM CDT (4/14) 6:33 AM CDT (4/14)
Length of Visible Light 14h 36m
Length of Day
13h 32m
Full, 100% of the Moon is Illuminated
Apr 14
Full
Apr 15
Full
Apr 22
Last Quarter
Apr 29
New
May 6
First Quarter

Hourly Weather History & Observations

Time (CDT) Temp. Windchill Dew Point Humidity Pressure Visibility Wind Dir Wind Speed Gust Speed Precip Events Conditions
12:52 AM 19.9 °F - 12.9 °F 74% 30.33 in 10.0 mi Calm Calm - N/A   Clear
1:52 AM 19.0 °F - 14.0 °F 81% 30.32 in 10.0 mi Calm Calm - N/A   Scattered Clouds
2:52 AM 23.0 °F - 18.0 °F 81% 30.29 in 10.0 mi Calm Calm - N/A   Overcast
3:45 AM 25.0 °F - 18.0 °F 75% 30.21 in 7.0 mi Calm Calm - 0.00 in Snow Light Snow
3:52 AM 24.8 °F - 17.6 °F 74% 30.21 in 4.0 mi Calm Calm - N/A Snow Light Snow
4:09 AM 24.1 °F 19.7 °F 19.9 °F 84% 30.20 in 2.5 mi NNE 3.5 mph - 0.00 in Snow Light Snow
4:22 AM 24.1 °F 19.7 °F 19.9 °F 84% 30.20 in 1.8 mi NE 3.5 mph - 0.00 in Snow Light Snow
4:45 AM 24.1 °F - 21.0 °F 88% 30.20 in 0.8 mi Calm Calm - 0.01 in Snow Light Snow
4:52 AM 23.0 °F 18.4 °F 21.0 °F 92% 30.27 in 0.8 mi NNE 3.5 mph - 0.02 in Snow Light Snow
5:05 AM 24.1 °F 19.7 °F 21.0 °F 88% 30.20 in 1.0 mi North 3.5 mph - 0.00 in Snow Light Snow
5:47 AM 23.0 °F 17.0 °F 21.2 °F 93% 30.19 in 1.5 mi NE 4.6 mph - 0.02 in Snow Light Snow
5:52 AM 23.0 °F 18.4 °F 21.0 °F 92% 30.26 in 2.0 mi NE 3.5 mph - 0.02 in Snow Light Snow
5:57 AM 23.0 °F - 21.0 °F 92% 30.19 in 3.0 mi Calm Calm - 0.00 in Snow Light Snow
6:28 AM 24.1 °F 19.7 °F 19.9 °F 84% 30.19 in 2.5 mi NNE 3.5 mph - 0.00 in Snow Light Snow
6:38 AM 24.1 °F 19.7 °F 19.9 °F 84% 30.19 in 1.8 mi North 3.5 mph - 0.01 in Snow Light Snow
6:52 AM 24.8 °F 19.1 °F 19.4 °F 80% 30.20 in 2.5 mi NNE 4.6 mph - N/A Snow Light Snow
7:01 AM 24.1 °F 19.7 °F 19.9 °F 84% 30.20 in 5.0 mi North 3.5 mph - 0.00 in Snow Light Snow
7:10 AM 24.1 °F 18.2 °F 19.9 °F 84% 30.21 in 2.5 mi North 4.6 mph - 0.00 in Snow Light Snow
7:31 AM 24.1 °F 17.0 °F 19.9 °F 84% 30.21 in 4.0 mi NNW 5.8 mph - 0.00 in Snow Light Snow
7:52 AM 24.1 °F 17.0 °F 19.9 °F 84% 30.30 in 10.0 mi NNW 5.8 mph - 0.00 in   Overcast
8:52 AM 25.0 °F 15.5 °F 19.0 °F 78% 30.32 in 10.0 mi North 9.2 mph - N/A   Overcast
9:52 AM 25.0 °F 14.2 °F 17.1 °F 72% 30.34 in 10.0 mi North 11.5 mph - N/A   Overcast
10:48 AM 28.4 °F 18.5 °F 17.6 °F 64% 30.26 in 10.0 mi NNW 11.5 mph - N/A   Mostly Cloudy
10:52 AM 28.0 °F 17.0 °F 17.1 °F 63% 30.35 in 10.0 mi NW 13.8 mph - N/A   Mostly Cloudy
11:07 AM 26.6 °F 17.5 °F 17.6 °F 69% 30.27 in 10.0 mi NNW 9.2 mph - N/A   Mostly Cloudy
11:18 AM 27.0 °F 16.1 °F 16.0 °F 63% 30.27 in 10.0 mi NW 12.7 mph - N/A   Overcast
11:41 AM 28.0 °F 17.0 °F 18.0 °F 66% 30.26 in 10.0 mi NNW 13.8 mph - N/A   Overcast
11:52 AM 28.9 °F 18.6 °F 18.0 °F 64% 30.35 in 10.0 mi NW 12.7 mph - N/A   Overcast
12:41 PM 28.0 °F 19.3 °F 19.9 °F 72% 30.26 in 2.5 mi NNW 9.2 mph - 0.00 in Snow Light Snow
12:52 PM 28.4 °F 17.5 °F 21.2 °F 74% 30.26 in 2.5 mi NW 13.8 mph - N/A Snow Light Snow
1:03 PM 28.0 °F 17.5 °F 21.0 °F 75% 30.26 in 1.8 mi NW 12.7 mph - 0.00 in Snow Light Snow
1:08 PM 28.0 °F 16.5 °F 19.9 °F 72% 30.26 in 3.0 mi NW 15.0 mph - 0.00 in Snow Light Snow
1:18 PM 28.0 °F 17.0 °F 21.9 °F 78% 30.26 in 2.5 mi NW 13.8 mph - 0.00 in Snow Light Snow
1:41 PM 30.9 °F 20.7 °F 19.9 °F 64% 30.25 in 3.0 mi NNW 13.8 mph - 0.00 in Snow Light Snow
1:50 PM 30.2 °F 18.9 °F 15.8 °F 55% 30.25 in 3.0 mi NW 16.1 mph 24.2 mph 0.00 in   Haze
1:52 PM 30.9 °F 19.4 °F 16.0 °F 54% 30.33 in 3.0 mi NW 17.3 mph 24.2 mph 0.00 in   Haze
2:52 PM 32.0 °F 20.8 °F 10.9 °F 42% 30.31 in 10.0 mi NNW 17.3 mph 23.0 mph 0.00 in   Overcast
3:52 PM 32.0 °F 23.0 °F 10.4 °F 41% 30.23 in 10.0 mi NNW 11.5 mph 24.2 mph N/A   Mostly Cloudy
4:52 PM 32.0 °F 20.8 °F 10.0 °F 40% 30.28 in 10.0 mi NNW 17.3 mph 20.7 mph N/A   Mostly Cloudy
5:52 PM 33.1 °F 24.4 °F 9.0 °F 37% 30.27 in 10.0 mi NW 11.5 mph - N/A   Mostly Cloudy
6:52 PM 30.9 °F 21.2 °F 8.1 °F 38% 30.27 in 10.0 mi NW 12.7 mph - N/A   Partly Cloudy
7:52 PM 28.9 °F 18.6 °F 8.1 °F 41% 30.27 in 10.0 mi NW 12.7 mph - N/A   Clear
8:52 PM 27.0 °F 17.3 °F 8.1 °F 45% 30.26 in 10.0 mi North 10.4 mph - N/A   Clear
9:52 PM 24.1 °F 18.2 °F 9.0 °F 53% 30.27 in 10.0 mi North 4.6 mph - N/A   Clear
10:52 PM 21.9 °F 15.7 °F 10.9 °F 63% 30.26 in 10.0 mi ENE 4.6 mph - N/A   Clear
11:52 PM 16.0 °F 7.4 °F 10.0 °F 77% 30.24 in 10.0 mi ENE 5.8 mph - N/A   Clear